ATLAS 5 CENTAUR DEB, 44009

Orbit data source: Space-Track

ATLAS 5 CENTAUR DEB, 44009 is space debris in HEO originally from a launch on Wed, 17 Sep 2014 UTC launched from the Air Force Eastern Test Range (AFETR). Debris objects in space refer to the collection of defunct objects orbiting the Earth. Examples of debris include non-operational satellites, rocket bodies, and fragments generated from explosions, collisions, or faulty payload assembly.

Loading next visibility...
Identifier
44009, 2014-055BQ
Orbit
HEO
Country
Flag of USUS
Related business
Flag of USUnited Launch Alliance/Lockheed Martin (US)
Manufacturer
Unknown
Mission
Spacecraft
Bus & Motor
Unknown
Mass
Unknown
Launch date (UTC)
2014-09-17 (11 years ago)
Launch vehicle
Unknown
Launch site
Air Force Eastern Test Range (AFETR)
Object type
Payload
Rocket body
Debris
Shape & HBR
Unknown shape, 1.1 m
Radar Cross Section
Small (<0.1 m²)

Expand to show TLE details & history
Last TLE update: 2 days ago

TLE from 2 days ago
0 ATLAS 5 CENTAUR DEB
1 44009U 14055BQ  26071.73529603 -.00000160  00000-0  00000-0 0  9991
2 44009  20.8501 117.8143 4988197 214.8460  99.0922  1.91638933 52114
Epoch: 2026-03-12T17:38Z
TLE epoch observation values (Epoch: 2026-03-12T17:38:49.576Z)
Latitude
0.00004°
Longitude
42.79021°
Altitude
28,446.398 km
Speed
2.887 km/s
True Right ascension
07h 51m 30s
True Declination
0° 00' 00"
Sunlit
Object was in daylight at epoch
Visualization orbit readout
Latitude
Unknown
Longitude
Unknown
Altitude
Unknown
Speed
Unknown
Apparent Right ascension
Unknown
Apparent Declination
Unknown
Sunlit
N/A
Visualization observer readout
Local Sidereal Time
13:28:40
Azimuth
Unknown
Elevation
Unknown
Doppler factor
Unknown
Orbital elements
Apogee altitude
34,660.609 km
Perigee altitude
7,344.535 km
Semi-major axis
27,380.709 km
Eccentricity
0.49882
Inclination
20.8501°
RAAN
117.8143°
Arg. of periapsis
214.846°
True anomaly
145.17168°
Mean anomaly
99.0922°
Eccentric anomaly
123.04845°
Mean motion
0.47904 °/min
Orbital period
751.5 mins
BSTAR
0
Loading maneuver chart data...
Computing Atmospheric mass density...

Documentation

Showing up to 5 results
|